Temperature
18 16 16 17 17 18 18 18 18 19 19 19 18 18 18 19 19 19 19 19 20 20 20 20 20 19 19 18 18 18 17 17 16 16 15 15 14 14 14 14 13 13 13 13
17 17 18 18 18 18 18 18 18 19 19 19 18 18 18 18 18 19 19 19 20 20 20 20 20 19 19 19 18 18 17 16 16 16 15 15 14 14 14 14 13 13 13 13
18 18 19 19 18 18 18 18 18 19 19 19 19 19 19 19 19 19 20 20 21 20 20 20 20 20 19 19 18 18 17 16 16 15 15 15 14 14 14 14 13 13 13 13
18 18 19 19 18 19 18 19 19 19 18 17 18 18 18 18 18 18 19 19 20 20 20 20 20 20 19 19 18 18 17 16 16 15 15 15 14 14 14 13 13 13 13 13
18 18 19 19 19 19 19 19 18 18 18 17 17 17 18 18 19 19 18 19 20 21 21 21 20 20 20 19 18 18 17 16 16 15 15 15 14 14 14 14 13 13 13 13
18 19 19 19 19 19 19 18 17 16 16 17 18 18 18 17 19 19 19 20 20 21 21 21 20 20 19 19 18 18 17 16 16 15 15 15 14 14 14 14 14 13 13 13
19 19 19 19 19 19 18 17 17 17 16 17 17 17 17 19 18 18 19 20 21 21 21 21 21 20 20 19 18 18 17 16 16 15 15 15 14 14 14 14 14 13 13 13
18 18 19 20 20 19 18 17 17 18 17 17 17 17 18 19 19 20 20 21 21 21 21 21 21 20 20 19 19 18 17 17 16 16 15 15 14 14 14 14 14 13 13 13
18 19 20 20 20 19 18 16 17 16 17 17 17 18 19 20 19 19 20 20 21 22 22 21 21 21 20 19 19 18 18 17 16 16 15 15 15 14 14 14 14 13 13 13
19 19 20 20 20 19 18 16 15 16 17 17 18 18 18 20 20 19 18 19 21 22 22 21 21 21 20 20 19 18 18 17 16 16 15 15 15 15 14 14 14 14 13 13
19 18 19 20 20 20 18 17 15 14 15 16 18 18 18 19 19 18 18 20 21 22 22 22 21 21 20 19 19 18 18 17 17 16 16 15 15 15 14 14 14 14 13 13
17 16 17 19 20 20 20 18 16 17 16 15 16 17 19 18 18 18 19 21 21 22 22 22 21 21 20 20 19 19 18 17 17 16 16 15 15 15 14 14 14 14 14 13
17 17 17 18 18 19 19 18 17 15 14 14 16 18 18 18 18 19 19 21 21 21 22 21 21 21 20 20 19 19 18 18 17 17 16 16 15 15 15 14 14 14 14 13
17 16 17 18 18 19 19 19 17 17 16 16 16 18 18 18 18 18 19 20 21 21 21 21 21 21 20 20 20 19 19 18 18 17 17 16 16 15 15 14 14 14 14 14
17 17 18 18 19 19 19 19 18 18 17 17 18 18 18 17 17 18 19 20 20 20 21 21 21 21 20 20 20 19 19 18 18 17 17 16 16 15 15 15 14 14 14 14
15 17 18 18 18 18 18 19 18 18 18 17 18 17 17 17 18 18 18 19 19 20 20 20 20 20 20 20 20 19 19 18 18 18 17 17 16 16 15 15 14 14 14 14
15 16 17 17 17 19 18 18 18 18 18 17 17 17 17 17 17 18 18 19 19 19 20 20 20 20 20 20 20 19 19 19 18 18 17 17 16 16 16 15 15 14 14 14
15 14 13 15 18 19 18 18 18 17 17 16 17 16 16 17 18 18 19 19 19 19 20 20 20 20 20 20 20 19 19 19 18 18 17 17 17 16 16 15 15 14 14 14
13 14 13 14 16 17 17 18 17 17 17 16 16 16 17 18 18 18 19 19 19 19 19 19 19 19 19 19 19 19 19 18 18 18 18 17 17 16 16 16 15 15 14 14
13 13 13 13 17 17 17 17 17 17 16 16 15 15 16 16 15 16 18 18 19 19 19 19 19 19 19 19 19 19 18 18 18 18 18 17 17 16 16 16 15 15 15 14
14 13 13 13 15 15 16 16 17 16 16 16 16 16 16 15 15 17 17 18 18 18 18 18 18 18 18 18 18 18 18 18 18 18 17 17 17 16 16 16 15 15 15 14
14 13 13 12 14 15 15 15 15 15 16 16 16 16 16 16 17 17 17 17 17 17 18 18 18 18 18 18 18 18 18 18 17 17 17 17 17 16 16 16 16 15 15 15
12 12 12 12 13 14 15 15 16 16 16 16 16 16 16 16 16 16 16 16 16 16 17 17 17 17 17 17 17 17 17 17 17 17 17 17 16 16 16 16 15 15 15 14
12 11 11 12 13 14 15 15 15 16 16 16 16 16 16 15 16 16 16 16 16 16 16 16 16 16 16 16 16 16 16 16 16 16 16 16 16 16 16 15 15 15 15 15
11 11 11 11 12 14 15 15 15 15 15 15 15 15 15 15 15 15 15 15 15 15 15 15 15 15 15 15 15 15 15 15 15 15 16 16 16 15 15 15 15 15 15 15
9 11 11 11 13 12 14 14 14 14 14 14 14 14 14 14 14 14 14 14 14 14 14 14 14 14 14 14 14 15 15 15 15 15 15 15 15 15 15 15 15 15 14 14
Wind_Speed
3 4 4 6 6 3 3 2 1 3 2 2 4 7 7 4 6 7 7 8 8 9 6 4 6 7 7 6 6 5 5 4 3 2 2 1 0 1 2 2 3 3 3 3
4 2 5 4 4 3 2 1 1 3 0 2 3 6 6 5 6 8 9 10 9 7 5 5 6 6 7 7 6 6 5 4 3 2 2 1 1 1 1 2 3 3 3 3
5 3 4 5 3 2 1 3 2 1 2 2 3 6 4 2 2 4 6 7 7 9 9 7 7 7 7 7 8 7 6 5 4 3 2 2 2 2 2 2 3 3 4 4
1 1 4 4 2 4 2 2 3 1 3 2 2 2 6 4 4 4 6 6 7 8 8 8 8 8 9 8 7 6 6 5 4 4 3 3 2 1 2 2 3 4 4 3
1 3 4 3 3 4 2 1 2 2 3 2 3 1 7 4 4 5 7 8 7 8 9 9 10 10 8 7 7 6 5 4 4 4 4 3 2 2 2 2 3 4 4 4
0 1 2 3 1 3 3 5 5 5 4 2 2 1 5 4 5 5 5 7 7 7 7 8 7 6 6 5 6 6 6 5 4 4 4 4 4 2 1 2 3 3 3 3
4 2 1 2 3 3 4 5 4 5 5 3 3 1 7 7 6 6 6 6 6 6 7 7 8 8 8 8 8 7 7 6 5 5 5 4 4 4 3 3 3 3 2 3
3 2 2 2 4 4 3 5 5 3 2 4 4 3 7 6 6 3 2 3 4 6 7 8 9 9 9 9 8 8 8 7 6 6 5 4 4 3 3 3 3 3 3 3
4 1 2 1 2 6 5 3 4 6 2 2 5 6 7 4 5 4 2 1 4 7 7 8 8 8 9 9 10 10 9 7 6 6 5 4 4 4 4 3 2 2 3 3
5 2 3 1 4 5 4 7 5 5 4 1 5 5 4 6 5 4 3 4 6 5 6 7 7 8 8 8 8 7 8 8 7 6 6 5 5 4 4 2 2 3 3 2
3 3 3 3 2 2 3 4 5 5 4 5 1 5 5 6 5 5 6 6 6 6 7 7 7 7 7 6 6 7 7 7 6 7 6 5 5 4 3 3 3 3 2 2
3 5 1 4 4 1 3 5 6 4 2 3 3 6 6 5 6 5 6 6 5 5 4 4 5 5 6 7 7 8 8 7 7 7 6 6 5 4 3 3 4 3 2 2
4 5 3 6 6 4 3 3 4 5 5 4 3 5 5 5 5 4 4 5 5 4 3 2 3 5 6 7 8 8 8 8 7 6 6 5 5 5 5 5 4 3 3 2
5 4 5 5 5 2 2 1 4 5 4 3 5 6 8 8 7 7 6 5 4 3 2 2 3 4 5 6 7 7 8 7 7 6 7 7 7 6 6 5 4 3 3 2
4 3 2 3 2 1 1 2 3 4 6 6 6 5 7 8 6 6 5 4 4 5 4 3 4 4 4 5 5 6 7 6 7 7 7 8 7 6 5 4 4 3 3 3
4 3 2 2 2 0 1 3 1 2 2 3 2 4 6 5 3 4 5 4 5 5 5 4 4 3 4 5 6 6 7 7 7 8 9 7 6 5 5 5 5 4 3 3
2 3 3 2 5 3 3 3 1 1 0 3 2 5 5 4 5 4 4 4 4 5 5 4 4 4 5 5 6 7 7 6 7 8 7 7 6 6 6 6 5 5 4 3
4 4 3 1 3 1 4 2 2 4 2 2 2 4 4 3 2 2 4 4 5 6 6 6 5 5 4 3 3 4 3 5 7 7 7 7 7 7 6 5 6 6 4 4
4 6 4 3 1 4 4 2 1 2 2 3 3 5 5 4 3 5 6 5 4 5 4 4 4 4 3 3 2 2 3 4 5 7 8 8 8 7 7 7 7 6 5 5
5 5 5 4 3 4 5 5 4 3 1 4 3 4 5 5 4 5 8 7 6 6 5 5 4 3 3 3 0 3 3 4 6 8 8 7 8 8 9 9 7 5 5 6
3 4 3 4 3 5 5 6 2 3 4 4 2 2 2 1 3 6 8 6 6 6 6 5 4 4 4 3 0 2 3 6 7 6 5 5 7 8 8 7 5 5 5 5
3 4 3 4 3 5 4 3 3 4 2 1 1 2 1 3 4 5 6 7 8 8 7 6 5 6 5 2 1 2 5 6 4 3 4 5 6 6 6 6 6 5 6 6
3 4 5 6 5 3 1 0 1 2 1 2 2 3 2 3 5 5 5 6 6 7 7 6 5 6 6 3 2 5 6 4 2 3 4 5 5 5 4 6 6 5 5 6
3 1 2 1 3 3 2 2 1 1 1 2 2 2 2 2 4 5 5 6 6 6 6 6 6 6 7 6 5 6 5 3 3 4 4 4 4 4 4 4 5 6 6 6
4 1 0 3 5 4 3 3 3 3 2 3 3 3 3 3 5 5 5 6 6 6 6 5 5 6 8 7 7 6 4 3 4 4 4 4 4 5 5 5 5 6 7 8
4 5 5 5 5 4 5 5 3 2 3 3 3 4 5 4 5 5 6 6 6 6 6 6 6 7 8 8 8 7 4 4 4 5 5 4 4 4 4 4 3 4 5 8
Wind_Direction
103 95 164 193 184 178 162 161 250 258 219 181 240 264 268 226 206 214 214 213 215 222 226 193 177 163 157 163 161 155 151 152 131 113 109 96 8 329 333 327 328 329 331 336
77 188 211 168 153 144 157 169 287 312 285 189 276 282 272 221 210 210 209 213 213 213 201 186 172 165 170 173 171 168 167 168 165 150 146 162 175 256 276 308 330 331 332 330
158 207 158 140 145 159 215 192 214 246 11 41 353 325 316 295 234 220 211 212 210 205 202 191 179 180 177 182 182 181 180 178 173 145 108 74 48 20 359 336 328 325 325 329
146 199 138 135 170 162 245 220 197 127 70 344 41 320 303 309 292 243 228 218 216 209 197 190 184 186 192 194 184 179 178 181 174 154 149 144 148 205 248 264 288 309 319 329
160 152 143 162 200 164 196 57 83 77 110 32 26 86 294 328 296 266 240 227 222 210 199 194 193 195 195 186 179 178 174 184 179 173 168 156 170 215 260 288 308 319 323 327
105 174 175 182 131 148 129 68 57 50 70 34 324 140 291 278 256 274 248 227 218 206 199 198 193 181 183 177 175 173 178 194 190 186 179 177 188 204 255 298 309 316 317 321
20 7 309 148 104 64 78 79 41 21 25 282 304 208 258 269 264 247 244 234 215 196 188 188 184 184 187 185 186 182 186 200 198 194 198 198 199 200 216 243 259 282 301 305
84 333 265 192 164 152 138 134 142 154 210 295 343 277 267 283 300 277 235 207 197 200 196 195 195 192 193 194 189 186 193 203 200 201 211 207 205 205 224 233 236 252 261 274
139 274 303 213 148 131 124 119 147 125 122 20 324 312 316 343 1 8 20 184 218 216 209 206 201 197 196 196 196 193 195 203 206 208 208 208 210 211 226 239 237 256 271 282
141 108 330 296 88 47 113 137 97 98 115 31 330 325 298 313 320 327 303 264 250 235 222 216 209 205 204 202 200 193 196 203 207 205 205 209 213 217 222 222 242 259 275 291
108 110 351 37 109 161 112 92 96 96 128 133 340 291 247 254 274 275 271 267 258 245 233 223 215 207 200 194 192 196 203 206 207 205 206 209 216 215 210 218 239 248 265 283
108 109 38 290 287 229 148 148 143 129 158 141 155 271 280 267 277 269 273 277 269 254 243 231 216 198 194 197 197 200 205 208 211 206 203 209 211 203 209 229 242 240 247 261
125 100 61 359 352 9 61 105 117 117 112 137 150 270 311 339 330 304 284 289 289 282 270 243 212 203 205 206 205 206 208 211 207 197 201 208 210 207 217 230 234 229 232 251
108 99 146 180 220 255 328 117 139 123 134 183 216 256 309 326 328 324 315 306 304 301 291 262 239 230 223 216 210 209 214 209 200 193 197 207 214 214 218 225 224 224 222 227
84 108 180 235 263 226 250 264 176 176 183 187 230 239 282 301 303 311 326 348 360 346 329 293 264 248 232 227 223 214 213 204 195 192 203 215 217 214 213 219 222 220 217 223
55 103 65 355 7 321 306 309 253 209 189 212 258 283 290 303 343 1 358 360 352 337 327 319 301 274 249 233 226 219 216 205 189 198 212 215 209 208 212 217 215 213 219 223
49 106 93 302 316 19 340 313 204 133 150 173 212 268 314 348 358 357 349 347 327 321 324 320 301 277 260 244 222 218 218 199 192 205 213 208 204 209 216 214 207 212 217 214
141 116 120 95 38 228 238 304 138 122 60 12 306 303 313 299 301 3 5 342 325 329 330 324 315 301 284 264 234 218 192 190 201 210 215 210 204 212 213 207 213 216 211 210
149 134 118 119 162 288 304 337 98 148 26 349 333 330 336 338 16 1 2 347 314 308 304 302 297 288 296 297 237 171 177 187 202 217 220 215 207 209 208 212 219 215 205 210
70 94 113 125 154 228 262 297 298 130 356 330 353 347 353 38 28 313 329 336 332 329 328 330 333 338 332 318 226 164 193 199 221 228 226 217 205 205 211 217 217 210 204 211
62 67 119 151 199 258 281 300 46 121 257 303 334 348 21 86 237 281 318 333 339 340 337 343 351 343 319 321 175 206 220 231 238 235 224 213 209 211 214 212 209 203 201 202
168 149 166 145 176 251 312 58 122 215 256 287 315 333 331 296 309 326 339 343 348 350 348 349 346 333 330 333 254 248 254 257 251 226 219 218 216 217 213 203 204 197 194 199
191 188 185 184 203 226 328 207 264 199 242 294 309 319 330 332 329 331 335 338 339 339 336 334 329 326 328 323 285 260 268 274 252 232 230 227 216 212 201 197 201 198 195 202
297 110 131 254 258 264 294 301 327 321 284 300 305 315 337 320 317 324 326 328 329 330 329 328 327 323 318 313 300 275 281 262 233 240 243 232 215 215 209 204 201 202 205 209
252 183 126 277 285 310 322 317 310 319 331 334 335 323 313 311 309 307 310 312 314 316 318 322 317 311 308 310 302 297 294 263 244 245 244 235 223 216 215 214 214 213 217 212
221 193 189 232 243 225 268 289 295 292 298 298 311 321 318 306 297 302 299 300 305 310 314 319 316 311 309 308 305 300 291 265 248 253 248 237 227 221 215 214 242 246 233 230
Height
1486 1492 1496 1495 1494 1495 1497 1501 1502 1499 1494 1496 1497 1496 1491 1490 1491 1492 1494 1495 1497 1498 1501 1503 1505 1507 1509 1511 1512 1512 1513 1513 1513 1513 1513 1513 1513 1512 1511 1510 1509 1508 1506 1504
1492 1494 1490 1489 1491 1494 1497 1501 1501 1497 1494 1496 1498 1496 1490 1489 1489 1489 1491 1492 1494 1497 1499 1501 1503 1505 1507 1509 1510 1511 1512 1513 1513 1513 1513 1513 1512 1511 1511 1510 1509 1507 1506 1504
1491 1490 1487 1490 1493 1496 1498 1501 1501 1500 1496 1495 1498 1498 1492 1488 1488 1488 1489 1491 1492 1495 1497 1499 1501 1503 1506 1508 1509 1510 1511 1512 1512 1512 1512 1512 1511 1511 1510 1509 1508 1507 1505 1504
1489 1487 1488 1491 1493 1495 1500 1494 1495 1497 1503 1509 1504 1514 1497 1491 1489 1487 1488 1489 1490 1492 1495 1497 1499 1501 1504 1506 1508 1510 1511 1511 1512 1512 1511 1511 1510 1510 1509 1508 1507 1506 1505 1503
1490 1488 1489 1492 1492 1492 1495 1493 1495 1498 1503 1510 1508 1514 1505 1493 1490 1487 1486 1486 1488 1490 1492 1494 1497 1499 1502 1505 1507 1508 1510 1510 1511 1511 1511 1510 1510 1509 1509 1508 1507 1506 1504 1503
1488 1487 1487 1488 1488 1490 1492 1496 1500 1506 1511 1519 1512 1515 1511 1498 1490 1486 1483 1484 1486 1488 1490 1493 1496 1498 1501 1503 1505 1507 1508 1509 1509 1510 1510 1509 1509 1509 1508 1507 1506 1505 1504 1503
1492 1489 1487 1487 1491 1492 1495 1507 1519 1521 1527 1523 1512 1513 1509 1490 1485 1484 1482 1482 1484 1486 1488 1491 1493 1496 1498 1500 1503 1505 1506 1507 1508 1508 1509 1509 1509 1508 1507 1507 1506 1505 1504 1503
1500 1501 1489 1487 1489 1494 1498 1504 1520 1528 1529 1525 1514 1514 1500 1486 1483 1481 1481 1481 1483 1485 1487 1489 1491 1494 1496 1498 1501 1503 1504 1505 1507 1507 1507 1508 1508 1507 1507 1506 1505 1505 1504 1502
1499 1499 1487 1485 1486 1490 1499 1505 1506 1518 1522 1526 1519 1508 1494 1484 1483 1482 1481 1482 1482 1484 1486 1488 1490 1492 1494 1497 1499 1501 1502 1504 1505 1506 1506 1506 1506 1506 1506 1505 1505 1504 1503 1502
1490 1497 1490 1487 1487 1490 1493 1501 1511 1519 1528 1532 1521 1514 1509 1492 1487 1484 1483 1482 1482 1483 1485 1486 1488 1490 1493 1495 1497 1499 1501 1502 1503 1504 1504 1505 1505 1505 1505 1504 1504 1503 1503 1502
1488 1498 1496 1491 1492 1494 1498 1503 1511 1520 1521 1531 1530 1521 1496 1492 1487 1485 1483 1482 1482 1482 1483 1485 1486 1488 1491 1493 1495 1497 1499 1500 1501 1502 1503 1503 1503 1503 1503 1503 1503 1503 1502 1502
1490 1499 1504 1496 1489 1488 1490 1497 1506 1515 1522 1526 1529 1521 1489 1488 1485 1484 1482 1481 1481 1482 1482 1483 1485 1487 1488 1490 1492 1494 1496 1497 1499 1500 1501 1501 1502 1502 1502 1502 1502 1501 1501 1501
1490 1500 1511 1509 1504 1495 1494 1496 1501 1509 1520 1527 1527 1515 1487 1486 1484 1483 1482 1481 1481 1481 1481 1482 1483 1484 1485 1487 1489 1491 1493 1495 1496 1497 1498 1499 1499 1500 1500 1500 1500 1500 1500 1500
1487 1499 1507 1512 1507 1499 1497 1496 1500 1505 1517 1521 1517 1507 1493 1488 1485 1483 1481 1481 1480 1480 1480 1481 1481 1482 1483 1485 1486 1488 1490 1492 1493 1495 1495 1496 1497 1497 1498 1498 1498 1499 1498 1498
1488 1498 1497 1498 1495 1496 1496 1496 1497 1501 1505 1511 1505 1502 1495 1489 1487 1484 1482 1481 1480 1480 1480 1480 1480 1481 1482 1483 1484 1485 1487 1489 1490 1491 1492 1493 1494 1495 1495 1496 1496 1497 1497 1497
1492 1497 1498 1499 1496 1496 1498 1496 1496 1497 1499 1501 1500 1499 1491 1488 1486 1484 1483 1482 1481 1480 1480 1479 1479 1480 1480 1481 1482 1483 1484 1485 1487 1488 1489 1490 1491 1492 1492 1493 1494 1494 1494 1495
1497 1499 1504 1508 1502 1497 1505 1497 1496 1496 1496 1497 1500 1497 1490 1488 1486 1485 1484 1483 1482 1481 1480 1479 1479 1478 1478 1479 1479 1480 1481 1483 1484 1485 1486 1487 1488 1489 1489 1490 1491 1491 1492 1492
1497 1502 1510 1511 1506 1511 1503 1492 1492 1495 1496 1495 1494 1492 1490 1488 1486 1485 1484 1483 1482 1481 1480 1479 1478 1477 1477 1477 1478 1478 1479 1480 1480 1481 1482 1483 1484 1485 1486 1487 1487 1488 1489 1489
1494 1500 1510 1516 1514 1509 1499 1493 1493 1495 1497 1495 1494 1491 1489 1487 1486 1485 1485 1484 1483 1482 1481 1480 1478 1477 1476 1476 1476 1476 1476 1477 1477 1478 1479 1480 1481 1482 1483 1483 1484 1485 1485 1486
1496 1499 1509 1515 1512 1514 1502 1492 1489 1493 1500 1494 1493 1491 1490 1488 1492 1490 1486 1484 1482 1481 1480 1478 1477 1476 1475 1474 1474 1473 1473 1474 1474 1474 1475 1476 1477 1478 1478 1479 1480 1481 1482 1482
1503 1506 1510 1514 1513 1508 1496 1491 1490 1504 1504 1494 1493 1492 1491 1490 1492 1489 1486 1484 1482 1481 1479 1477 1476 1475 1473 1472 1472 1471 1471 1471 1471 1471 1472 1472 1473 1474 1474 1475 1476 1477 1478 1478
1503 1507 1511 1514 1514 1510 1495 1493 1497 1499 1494 1493 1492 1491 1490 1490 1489 1487 1485 1483 1481 1479 1478 1476 1474 1473 1472 1470 1469 1468 1468 1468 1468 1468 1468 1468 1469 1469 1470 1471 1471 1472 1473 1473
1501 1501 1502 1504 1504 1497 1494 1494 1494 1494 1493 1492 1492 1491 1490 1489 1487 1486 1484 1482 1480 1479 1476 1474 1472 1471 1469 1468 1467 1465 1465 1464 1464 1464 1464 1464 1464 1464 1465 1465 1466 1467 1467 1468
1498 1497 1499 1499 1495 1494 1493 1493 1492 1492 1492 1491 1491 1490 1489 1487 1486 1484 1483 1481 1478 1476 1474 1472 1470 1468 1466 1465 1463 1462 1461 1460 1460 1459 1459 1459 1459 1459 1460 1460 1461 1461 1461 1462
1497 1497 1498 1498 1494 1492 1491 1491 1491 1491 1490 1489 1489 1488 1487 1485 1484 1482 1480 1478 1476 1474 1472 1469 1467 1465 1463 1461 1460 1458 1457 1456 1455 1454 1453 1453 1453 1454 1454 1454 1455 1455 1456 1457
1494 1495 1497 1496 1492 1492 1491 1490 1489 1489 1488 1487 1486 1485 1484 1483 1481 1480 1478 1476 1473 1471 1469 1466 1464 1461 1459 1457 1455 1454 1452 1451 1450 1448 1447 1447 1447 1448 1448 1448 1449 1449 1450 1451